Milwaukee, WI

12:59 PM CST on February 24, 2018 (GMT -0600)
Gen Mitchell International

Weather History for KMKE - September, 2013

Change the Weather History Date:

Friday, September 13, 2013

  Actual Average Record
Temperature  
Mean Temperature 56 °F 64 °F  
Max Temperature 62 °F 73 °F 96 °F (1939)
Min Temperature 49 °F 56 °F 37 °F (1964)
Degree Days  
Heating Degree Days 9 3  
Month to date heating degree days 11 26  
Since 1 July heating degree days 33 52  
Cooling Degree Days 0 2  
Month to date cooling degree days 81 46  
Year to date cooling degree days 658 611  
Growing Degree Days 5 (Base 50)    
Moisture  
Dew Point 43 °F    
Average Humidity 66    
Maximum Humidity 77    
Minimum Humidity 55    
Precipitation  
Precipitation 0.00 in 0.11 in 2.52 in (1961)
Month to date precipitation 0.51 1.35  
Year to date precipitation 30.64 25.53  
Snow  
Snow 0.00 in 0.00 in 0.00 in ()
Month to date snowfall 0.0 0.0  
Since 1 July snowfall 0.0 0.0  
Since 1 September snowfall 0.0 0.0  
Snow Depth 0.00 in    
Sea Level Pressure  
Sea Level Pressure 30.17 in    
Wind  
Wind Speed 10 mph (North)    
Max Wind Speed 20 mph    
Max Gust Speed 26 mph    
Visibility 10 miles    
Events      
T = Trace of Precipitation, MM = Missing Value Source: NWS Daily Summary

Daily Weather History Graph

Daily Weather History Graph

Search for Another Location

Airport or City:

Trip Planner

Search our weather history database for the weather conditions in past years. The results will help you decide how hot, cold, wet, or windy it might be!

Date:

Astronomy

Sep. 13, 2013 Rise Set
Actual Time 6:29 AM CDT 7:04 PM CDT
Civil Twilight 6:00 AM CDT 7:33 PM CDT
Nautical Twilight 5:27 AM CDT 8:06 PM CDT
Astronomical Twilight 4:52 AM CDT 8:41 PM CDT
Moon 3:00 PM CDT (9/13) No Moon Set
Length of Visible Light 13h 32m
Length of Day
12h 35m
First Quarter, 61% of the Moon is Illuminated
Sep 13
First Quarter
Sep 19
Full
Sep 26
Last Quarter
Oct 4
New
Oct 11
First Quarter

Hourly Weather History & Observations

Time (CDT) Temp. Dew Point Humidity Pressure Visibility Wind Dir Wind Speed Gust Speed Precip Events Conditions
12:52 AM 57.0 °F 43.0 °F 59% 30.13 in 10.0 mi NNW 12.7 mph 19.6 mph N/A   Scattered Clouds
1:52 AM 55.0 °F 42.1 °F 62% 30.14 in 10.0 mi North 12.7 mph 24.2 mph N/A   Partly Cloudy
2:52 AM 53.1 °F 41.0 °F 64% 30.14 in 10.0 mi North 10.4 mph - N/A   Clear
3:52 AM 52.0 °F 42.1 °F 69% 30.15 in 10.0 mi NNW 10.4 mph - N/A   Clear
4:52 AM 51.1 °F 42.1 °F 71% 30.15 in 10.0 mi NNW 12.7 mph - N/A   Clear
5:52 AM 50.0 °F 42.1 °F 74% 30.17 in 10.0 mi NNW 10.4 mph - N/A   Partly Cloudy
6:52 AM 48.9 °F 41.0 °F 74% 30.18 in 10.0 mi NNW 12.7 mph - N/A   Partly Cloudy
7:52 AM 52.0 °F 41.0 °F 66% 30.18 in 10.0 mi North 10.4 mph - N/A   Partly Cloudy
8:52 AM 55.0 °F 42.1 °F 62% 30.19 in 10.0 mi North 8.1 mph 17.3 mph N/A   Partly Cloudy
9:52 AM 57.9 °F 44.1 °F 60% 30.21 in 10.0 mi North 11.5 mph 19.6 mph N/A   Partly Cloudy
10:52 AM 59.0 °F 44.1 °F 58% 30.21 in 10.0 mi NNE 13.8 mph 20.7 mph N/A   Scattered Clouds
11:52 AM 60.1 °F 45.0 °F 57% 30.21 in 10.0 mi North 15.0 mph 20.7 mph N/A   Mostly Cloudy
12:52 PM 60.1 °F 44.1 °F 55% 30.19 in 10.0 mi NNE 16.1 mph 24.2 mph N/A   Scattered Clouds
1:52 PM 61.0 °F 44.1 °F 54% 30.19 in 10.0 mi NE 16.1 mph 20.7 mph N/A   Scattered Clouds
2:52 PM 61.0 °F 45.0 °F 56% 30.18 in 10.0 mi NE 12.7 mph - N/A   Partly Cloudy
3:52 PM 61.0 °F 45.0 °F 56% 30.17 in 10.0 mi NE 12.7 mph 19.6 mph N/A   Partly Cloudy
4:52 PM 60.1 °F 45.0 °F 57% 30.17 in 10.0 mi NE 12.7 mph - N/A   Partly Cloudy
5:52 PM 59.0 °F 45.0 °F 60% 30.17 in 10.0 mi NNE 11.5 mph - N/A   Partly Cloudy
6:52 PM 57.0 °F 45.0 °F 64% 30.17 in 10.0 mi NNE 10.4 mph - N/A   Partly Cloudy
7:52 PM 55.9 °F 45.0 °F 67% 30.17 in 10.0 mi NNE 8.1 mph - N/A   Partly Cloudy
8:52 PM 57.0 °F 43.0 °F 59% 30.18 in 10.0 mi NNE 8.1 mph - N/A   Clear
9:52 PM 55.9 °F 43.0 °F 62% 30.17 in 10.0 mi NW 4.6 mph - N/A   Clear
10:52 PM 52.0 °F 44.1 °F 74% 30.17 in 10.0 mi NW 3.5 mph - N/A   Clear
11:52 PM 53.1 °F 44.1 °F 71% 30.16 in 10.0 mi NW 4.6 mph - N/A   Clear